Corona, CA

8:23 PM PST on December 08, 2016 (GMT -0800)
Corona Municipal

Weather History for KAJO - September, 2013

Change the Weather History Date:

Thursday, September 19, 2013

  Actual Average (KCNO) Record (KCNO)
Temperature  
Mean Temperature 66 °F -  
Max Temperature 83 °F 87 °F 102 °F (2016)
Min Temperature 48 °F 54 °F 50 °F (2006)
Growing Degree Days 16 (Base 50)    
Moisture  
Dew Point 57 °F    
Average Humidity 80    
Maximum Humidity 100    
Minimum Humidity 44    
Precipitation  
Precipitation 0.00 in - - ()
Sea Level Pressure  
Sea Level Pressure 29.78 in    
Wind  
Wind Speed 3 mph (WNW)    
Max Wind Speed 16 mph    
Max Gust Speed 22 mph    
Visibility 9 miles    
Events      
Averages and records for this station are not official NWS values.
T = Trace of Precipitation, MM = Missing Value Source: NWS Daily Summary

Daily Weather History Graph

Daily Weather History Graph

Search for Another Location

Airport or City:

Trip Planner

Search our weather history database for the weather conditions in past years. The results will help you decide how hot, cold, wet, or windy it might be!

Date:

Astronomy

Sep. 19, 2013 Rise Set
Actual Time 6:36 AM PDT 6:50 PM PDT
Civil Twilight 6:11 AM PDT 7:15 PM PDT
Nautical Twilight 5:42 AM PDT 7:44 PM PDT
Astronomical Twilight 5:12 AM PDT 8:14 PM PDT
Moon 6:56 PM PDT (9/19) 6:48 AM PDT (9/19)
Length of Visible Light 13h 04m
Length of Day
12h 14m
Full, 100% of the Moon is Illuminated
Sep 19
Full
Sep 26
Last Quarter
Oct 4
New
Oct 11
First Quarter
Oct 18
Full

Hourly Weather History & Observations

Time (PDT) Temp. Heat Index Dew Point Humidity Pressure Visibility Wind Dir Wind Speed Gust Speed Precip Events Conditions
12:56 AM 54.9 °F - 52.9 °F 93% 29.78 in 10.0 mi Calm Calm - N/A   Clear
1:56 AM 54.0 °F - 52.9 °F 96% 29.78 in 10.0 mi Calm Calm - N/A   Clear
2:56 AM 52.0 °F - 52.0 °F 100% 29.77 in 9.0 mi Calm Calm - N/A   Clear
3:26 AM 51.8 °F - 51.8 °F 100% 29.78 in 1.8 mi Calm Calm - N/A   Clear
3:38 AM 50.0 °F - 50.0 °F 100% 29.78 in 3.0 mi Calm Calm - N/A   Clear
3:56 AM 50.9 °F - 50.9 °F 100% 29.76 in 10.0 mi Calm Calm - N/A   Clear
4:56 AM 50.0 °F - 50.0 °F 100% 29.77 in 10.0 mi Calm Calm - N/A   Clear
5:56 AM 48.9 °F - 48.9 °F 100% 29.78 in 5.0 mi Calm Calm - N/A   Clear
6:56 AM 48.9 °F - 48.9 °F 100% 29.80 in 8.0 mi Calm Calm - N/A   Clear
7:56 AM 59.0 °F - 59.0 °F 100% 29.82 in 10.0 mi Calm Calm - N/A   Clear
8:56 AM 63.9 °F - 59.9 °F 87% 29.82 in 10.0 mi West 4.6 mph - N/A   Clear
9:56 AM 68.9 °F - 59.0 °F 71% 29.82 in 10.0 mi Calm Calm - N/A   Clear
10:56 AM 72.0 °F - 59.9 °F 66% 29.81 in 10.0 mi WNW 3.5 mph - N/A   Clear
11:56 AM 77.9 °F - 59.0 °F 52% 29.79 in 10.0 mi West 9.2 mph - N/A   Clear
12:56 PM 79.9 °F - 59.0 °F 49% 29.78 in 10.0 mi West 10.4 mph - N/A   Clear
1:56 PM 82.9 °F 83.2 °F 59.9 °F 46% 29.75 in 10.0 mi West 9.2 mph - N/A   Clear
2:56 PM 83.8 °F 83.8 °F 59.9 °F 44% 29.73 in 10.0 mi WNW 13.8 mph - N/A   Clear
3:56 PM 81.9 °F 82.2 °F 59.9 °F 47% 29.72 in 10.0 mi WNW 16.1 mph 21.9 mph N/A   Clear
4:56 PM 79.0 °F - 59.9 °F 52% 29.72 in 10.0 mi West 15.0 mph 21.9 mph N/A   Clear
5:56 PM 74.8 °F - 59.9 °F 60% 29.73 in 10.0 mi West 13.8 mph 20.7 mph N/A   Clear
6:56 PM 70.0 °F - 59.9 °F 70% 29.75 in 10.0 mi West 10.4 mph - N/A   Clear
7:56 PM 66.9 °F - 59.9 °F 78% 29.78 in 10.0 mi West 9.2 mph - N/A   Clear
8:56 PM 64.9 °F - 59.9 °F 84% 29.81 in 10.0 mi West 6.9 mph - N/A   Clear
9:56 PM 64.9 °F - 61.0 °F 87% 29.83 in 10.0 mi Calm Calm - N/A   Clear
10:56 PM 61.9 °F - 59.9 °F 93% 29.83 in 10.0 mi Calm Calm - N/A   Clear
11:56 PM 61.0 °F - 61.0 °F 100% 29.83 in 10.0 mi Calm Calm - N/A   Clear